Погода в Уаките

Россия / Республика Бурятия     55°28′57″N   113°38′06″E
темп.,
°C
ветер,
м/с
пор.,
м/с
влажн.,
%
обл.,
%
осадки,
мм/ч
давл.,
гПа
погр.,
м
15 апреля, чт
чт1523:00−16с227499 0.0 101810
02:00−17ссв117996 0.0 10179
05:00−17ссв1184100 0.0 10179
08:00−13ююз1178100 0.0 101583
11:00−8ююз217193 0.0 1012323
14:00−5ююз126991 0.1 1011553
17:00−3зсз136096 0.1 1011737
20:00−11с337589 0.1 101617
16 апреля, пт
пт1623:00−14с22805 0.0 102014
02:00−15ссз22905 0.0 102212
05:00−16с119394 0.0 102410
08:00−12ю119099 0.0 1022100
11:00−9ю2284100 0.0 1019338
14:00−4ю256292 0.0 1014807
17:00−2юз3569100 0.0 1012724
20:00−8с1184100 0.0 101510
17 апреля, сб
сб1723:00−10ссз1186100 0.0 101510
02:00−12с1191100 0.0 101510
05:00−12с1193100 0.0 10149
08:00−9ю118894 0.0 1011118
11:00−5ю138648 0.0 1008296
14:00+1юв249696 0.0 1003216
17:00+3з7136685 0.1 1000449
20:00−2сз227527 0.4 100615
18 апреля, вс
вс1823:00−5с337580 0.0 100827
02:00−8ссз34855 0.2 101250
05:00−11ссз34825 0.0 101649
08:00−8ссз226790 0.0 1017217
11:00−6ссз1239100 0.0 1016802
14:00−4с1128100 0.0 1015991
17:00−3вюв1134100 0.0 1014732
20:00−5св1256100 0.1 101580
19 апреля, пн
пн1923:00−7ююв1195100 0.6 1015102
02:00−8ссз119590 1.2 101618
05:00−10ссз328522 0.0 101832
08:00−7зсз22725 0.0 1019263
11:00−4сз4743100 0.1 10192118
14:00−3сз5838100 0.1 10202384
17:00−3ссз453618 0.0 10201359
20:00−6св22524 0.0 102313